Location: Palomar Mountain Lodge
(33.3110°N, 116.8495°W)
Time: 06:14:52
(UTC-07:00)

DMSP B5D2-2 - Pass Details

Date: 19 May 2017
Orbit: 791 x 806 km, 98.5° (Epoch: 28 May)

Event Time Altitude Azimuth Distance (km) Brightness Sun altitude
Rises 22:29:32 0° 11° (NNE) 3,322 7.9 -27.8°
Reaches altitude 10° 22:31:52 10° 11° (NNE) 2,387 7.0 -28.1°
Enters shadow 22:36:45 76° 353° (N) 830 4.1 -28.6°
